Hourly Data Report for October 09, 2013

All times are specified in Local Standard Time (LST). Add 1 hour to adjust for Daylight Saving Time where and when it is observed.

GRISE FIORD CLIMATE
NUNAVUT

76°25'22.040" N
82°54'08.020" W
44.50 m
2402351
71971
NGC

Download Data

Hourly Data (October 2013)
Hourly Data Report for October 9, 2013
Temp Definition
°C
Dew Point Temp Definition
°C
Rel Hum Definition
%
Wind Dir Definition
10's deg

Wind Spd Definition
km/h
Visibility Definition
km
Stn Press Definition
kPa
Hmdx Definition


Wind Chill Definition


Weather Definition


TIME
00:00 -11.7 -16.4 68 7 17   101.59   -19 LegendNANA
01:00 -12.7 -16.7 72 4 2   101.53   -14 LegendNANA
02:00 -11.0 -16.3 65 30 4   101.47   -13 LegendNANA
03:00 -12.0 -16.2 71 14 9   101.43   -17 LegendNANA
04:00 -10.7 -15.5 68 11 7   101.36   -15 LegendNANA
05:00 -11.6 -16.1 69 15 7   101.34   -16 LegendNANA
06:00 -11.0 -15.0 72 16 11   101.29   -17 LegendNANA
07:00 -10.3 -14.7 70 26 13   101.25   -17 LegendNANA
08:00 -10.0 -14.7 68 9 17   101.19   -17 LegendNANA
09:00 -9.2 -14.9 63 5 13   101.18   -15 LegendNANA
10:00 -8.2 -15.0 58 2 26   101.12   -17 LegendNANA
11:00 -8.7 -15.1 60 1 52   101.04   -20 LegendNANA
12:00 -7.9 -16.0 52 35 37   101.05   -18 LegendNANA
13:00 -8.7 -14.9 61 28 7   101.09   -13 LegendNANA
14:00 -9.1 -14.0 68 15 9   101.08   -14 LegendNANA
15:00 -9.3 -14.0 69 14 9   101.08   -14 LegendNANA
16:00 -9.3 -15.1 63 16 4   101.03   -12 LegendNANA
17:00 -10.0 -15.2 66 14 11   101.03   -16 LegendNANA
18:00 -9.7 -16.0 60 10 13   100.98   -16 LegendNANA
19:00 -8.4 -14.7 60 27 20   100.92   -16 LegendNANA
20:00 -9.2 -14.8 64 17 9   100.94   -14 LegendNANA
21:00 -10.6 -14.9 71 15 6   100.94   -14 LegendNANA
22:00 -10.4 -14.3 73 15 17   100.91   -18 LegendNANA
23:00 -9.6 -14.7 66 4 13   100.93   -16 LegendNANA

Notes on Data Quality.

Legend

  • E = Estimated
  • M = Missing
  • NA = Not Available
  • ‡ = Partner data that is not subject to review by the National Climate Archives
Date modified: